{"data":{"norad_id":64702,"epoch":"2026-05-25T04:48:35.429184Z","epoch_age_seconds":67790,"freshness":"FRESH","line1":"1 64702U 25142G   26145.20041006  .00002925  00000+0  25275-3 0  9995","line2":"2 64702  70.0006 121.4256 0003783 259.1625 100.9109 14.98335671 51100","mean_motion":14.98335671,"eccentricity":0.0003783,"inclination_deg":70.0006,"raan_deg":121.4256,"arg_perigee_deg":259.1625,"mean_anomaly_deg":100.9109,"bstar":0.00025275,"rev_number":5110,"period_min":96.106635373563,"perigee_km":569.40910256365,"apogee_km":574.66760523641,"semimajor_km":6950.1753539,"source":"CELESTRAK","updated_at":"2026-05-25T13:38:20.511951Z"}}